Regional Weather Roundup
Issued by NWS Glasgow, MT

Current Version | Previous Version | Text Only | Print | Product List | Glossary On
Versions: 1 2 3 4 5 6 7 8 9 10 11 12 13 14 15 16 17 18 19 20 21 22 23 24 25 26 27 28
000
ASUS45 KGGW 231215
RWRGGW
HOURLY WEATHER ROUNDUP FOR NORTHEAST MONTANA
NATIONAL WEATHER SERVICE GLASGOW MONTANA
600 AM MDT WED APR 23 2014

NOTE: "FAIR" INDICATES FEW OR NO CLOUDS BELOW 12,000 FEET WITH NO
SIGNIFICANT WEATHER AND/OR OBSTRUCTIONS TO VISISBILITY.

NORTHEAST MONTANA


CITY           SKY/WX    TMP DP  RH WIND       PRES   REMARKS
GLASGOW        MOCLDY    49  33  54 W5        29.39R
6HR MIN TEMP:  49; 6HR MAX TEMP:  57;

PLENTYWOOD       N/A     49  39  68 E10G18      N/A
WOLF POINT     MOCLDY    48  33  56 E8        29.39R
JORDAN           N/A     48  42  80 NW29G37   29.44R
WINNETT          N/A     45  39  79 W13         N/A
SIDNEY         MOCLDY    52  36  54 MISG      29.40S
GLENDIVE       CLOUDY    52  34  50 E10       29.38R

FORT PECK REPORTS


CITY           SKY/WX    TMP DP  RH WIND       PRES   REMARKS
FORT PECK        N/A     51  34  52 N1          N/A
THE PINES        N/A     49  42  77 W16G35      N/A

SOUTHEAST MONTANA


CITY           SKY/WX    TMP DP  RH WIND       PRES   REMARKS
BILLINGS       MOCLDY    43  31  62 W21       29.55R
MILES CITY     CLOUDY    50  43  77 NW28G36   29.42R HAZE
BAKER          CLOUDY    50  38  63 SE12      29.38S
LIVINGSTON     CLOUDY    35  35 100 W18       29.69R

CENTRAL MONTANA


CITY           SKY/WX    TMP DP  RH WIND       PRES   REMARKS
HAVRE          CLOUDY    43  35  73 W15       29.53R
LEWISTOWN      CLOUDY    38  31  76 W21G29    29.58R
GREAT FALLS    CLOUDY    37  29  72 SW17      29.60R
CUT BANK       MOCLDY    36  23  59 W22       29.54F
HELENA         CLOUDY    39  24  55 W13G18    29.72R
BUTTE          CLOUDY    30  23  75 NW6       29.75R
BOZEMAN        LGT SNOW  32  29  88 W6        29.76R FOG

WESTERN MONTANA


CITY           SKY/WX    TMP DP  RH WIND       PRES   REMARKS
MISSOULA       CLOUDY    37  26  64 W6        29.82R
KALISPELL      NOT AVBL

NORTH DAKOTA


CITY           SKY/WX    TMP DP  RH WIND       PRES   REMARKS
WILLISTON      CLOUDY    51  38  60 SE24G37   29.43R
DICKINSON      MOCLDY    47  34  60 E28G35    29.41F
MINOT          LGT RAIN  45  41  86 E15G24    29.63F
BISMARCK       CLOUDY    51  38  60 E23G32    29.60F

SOUTHERN SASKATCHEWAN


CITY           SKY/WX    TMP DP  RH WIND       PRES   REMARKS
REGINA         MOCLDY    46  34  61 E29G39    29.53F
MOOSE JAW      MOCLDY   N/A N/A N/A SE17G23     N/A
ESTEVAN        CLOUDY    45  36  70 SE23G31   29.54F
SWIFT CURRENT  LGT RAIN  41  39  93 MISG      29.45S FOG




USA.gov is the U.S. government's official web portal to all federal, state and local government web resources and services.